[[{"header":{"parameterUnit":"m.s-1","parameterCategory":2,"la1":30.2991,"la2":30.254,"lo1":-89.0895,"lo2":-89.0444,"dy":0.0017,"dx":0.0017,"nx":28,"ny":28,"refTime":"2023-10-25T03:00:00:Z","depth":"0","parameterNumber":2,"parameterNumberName":"U-component_of_CURRENTS"},"data":[0,0,0,0,0,0,0,0,0,0,0,0,0,0,0,0,0,0,0,0,0,0,0,0,0,0,0,0,0,0,0,0,0,0,0,0,0,0,0,0,0,0,0,0,0,0,0,0,0,0,0,0,0,0,0,0,0,0,0.198,0.198,0,0.1988,0.1988,0.1988,0.1988,0.1988,0.1988,0.1988,0.1969,0.1968,0.1968,0,0,0,0,0,0,0,0,0,0,0,0,0,0.1973,0.1973,0.198,0.198,0.1981,0.1988,0.1988,0.1988,0.1988,0.1988,0.1988,0.1988,0.1969,0.1969,0.1968,0,0,0,0,0,0,0,0,0,0,0,0,0,0.1976,0.1973,0.198,0.1983,0.1984,0.1988,0.1988,0.1988,0.1988,0.1988,0.1988,0.1988,0.1969,0.1969,0.1968,0.1959,0,0,0.1965,0.1965,0,0,0,0,0,0,0,0,0.1976,0.1976,0.1982,0.1983,0.1984,0.1989,0.1979,0.1978,0.1988,0.1984,0.1988,0.1988,0.1974,0.1973,0.1972,0.1959,0.1958,0.1965,0.1964,0.1964,0.1964,0,0,0,0,0,0,0,0.1976,0.1976,0.1981,0.1983,0.1984,0.1987,0.1987,0.1978,0.1976,0.1984,0.1985,0.1989,0.1974,0.1973,0.1971,0.1957,0.1965,0.1964,0.1964,0.1963,0.1966,0.1967,0,0,0,0,0,0,0.1978,0.1976,0.1981,0.1982,0.1982,0.1987,0.1987,0.1985,0.1977,0.1977,0.1989,0.1989,0.1974,0.1972,0.197,0.198,0.1964,0.1963,0.1963,0.1966,0.1966,0.1967,0,0,0,0,0,0,0.1978,0.1979,0.1981,0.1981,0.1982,0.1987,0.1985,0.1985,0.1986,0.1981,0.198,0.199,0.1974,0.1972,0.1971,0.1979,0.1963,0.1962,0.1965,0.1966,0.1967,0.1987,0,0,0,0,0,0,0.1978,0.1978,0.1976,0.1981,0.1982,0.1984,0.1985,0.1986,0.1989,0.1989,0.1981,0.1979,0.1974,0.1972,0.197,0.1977,0.1961,0.1964,0.1965,0.1966,0.1986,0.1989,0.1991,0,0,0,0,0,0.1977,0.1974,0.1976,0.1977,0.1979,0.1984,0.1985,0.1988,0.1989,0.1989,0.1989,0.198,0.1978,0.1972,0.1969,0.1976,0.1964,0.1965,0.1966,0.1985,0.1988,0.1991,0,0,0,0,0,0,0.1966,0.1974,0.1976,0.1974,0.198,0.1985,0.1986,0.1989,0.1988,0.1989,0.1983,0.1981,0.1986,0.1978,0.1972,0.1982,0.1971,0.1972,0.1986,0.1989,0.1992,0.1995,0.1961,0,0,0,0,0,0.1964,0.1965,0.1973,0.1971,0.1975,0.1981,0.1983,0.1986,0.1989,0.1989,0.1984,0.1983,0.1989,0.1986,0.1986,0.1985,0.1994,0.1991,0.1994,0.1996,0.1998,0.2023,0.2028,0.1972,0.1972,0.1972,0,0,0.196,0.1965,0.1965,0.197,0.1974,0.1981,0.1982,0.1987,0.1995,0.1986,0.199,0.1991,0.1992,0.1999,0.2,0.1992,0.2018,0.1998,0.2,0.2,0.2025,0.203,0.2035,0.1973,0.1972,0.1972,0,0,0.1954,0.1956,0.1956,0.1964,0.1974,0.198,0.1982,0.1988,0.1993,0.1998,0.2002,0.2009,0.2005,0.2013,0.2017,0.2034,0.2034,0.2033,0.2044,0.2069,0.2074,0.2078,0.2102,0.2108,0.2031,0.2031,0.2031,0,0.1949,0.1949,0.1957,0.1963,0.197,0.198,0.1985,0.1994,0.1999,0.2007,0.2002,0.2019,0.2016,0.2037,0.2044,0.204,0.2053,0.2031,0.2073,0.2077,0.2081,0.2105,0.2111,0.2032,0.2032,0.2032,0.2032,0,0.1944,0.1948,0.195,0.1962,0.1972,0.1976,0.1994,0.2003,0.2011,0.2019,0.204,0.2042,0.2056,0.2056,0.2053,0.2082,0.2083,0.2076,0.2064,0.2088,0.2111,0.2118,0.2034,0.2034,0.2033,0.2033,0,0,0.192,0.1942,0.1943,0.1951,0.1971,0.1978,0.2,0.202,0.204,0.2046,0.207,0.208,0.2086,0.2092,0.2094,0.2107,0.2147,0.2102,0.2103,0.2125,0.2206,0.2209,0.2216,0.2149,0.215,0.2151,0.2212,0,0.1912,0.1924,0.1937,0.1951,0.1959,0.1983,0.2005,0.2028,0.2049,0.2075,0.209,0.211,0.2101,0.2112,0.2128,0.2148,0.2165,0.2131,0.2179,0.218,0.218,0.2224,0.2151,0.22,0.2218,0.2219,0.222,0,0.1896,0.1911,0.1922,0.1954,0.196,0.1973,0.2014,0.2036,0.2081,0.2099,0.2128,0.2141,0.2175,0.2157,0.2209,0.219,0.22,0.2207,0.2209,0.2209,0.2196,0.2178,0.2211,0.2171,0.223,0.223,0.2229,0,0.1871,0.1896,0.1906,0.1915,0.1954,0.1969,0.1993,0.204,0.2066,0.2118,0.2147,0.2184,0.2221,0.2235,0.2264,0.2238,0.232,0.2287,0.2298,0.2298,0.2244,0.2237,0.2242,0.2317,0.2317,0.2317,0.2317,0,0.185,0.1856,0.1896,0.1901,0.1921,0.1959,0.1988,0.2023,0.2079,0.2114,0.216,0.2205,0.2243,0.2294,0.2292,0.2336,0.2351,0.2314,0.232,0.225,0.2243,0.2211,0.2178,0.2319,0.2319,0.2318,0.2318,0,0.1812,0.1836,0.1849,0.1894,0.1906,0.1921,0.1974,0.2002,0.2067,0.212,0.214,0.2238,0.2318,0.2357,0.2405,0.2389,0.2347,0.2416,0.2335,0.233,0.2279,0.2248,0.216,0.2089,0.2426,0.2427,0.2427,0,0.1786,0.1793,0.1834,0.1843,0.1859,0.1891,0.1914,0.1979,0.2017,0.2137,0.2164,0.2275,0.2344,0.2442,0.2448,0.247,0.2382,0.2399,0.2328,0.2282,0.2253,0.214,0.2077,0.2264,0.2263,0.2262,0.2262,0,0.1743,0.1763,0.1779,0.1804,0.1823,0.1845,0.1889,0.1914,0.2004,0.2067,0.2165,0.2231,0.2362,0.2382,0.2441,0.2431,0.2284,0.2384,0.2353,0.2147,0.2006,0.1938,0.2222,0.2255,0.2256,0.2256,0.2257,0.2257,0.1707,0.171,0.174,0.1753,0.1777,0.1793,0.1791,0.1855,0.1907,0.1986,0.2103,0.2179,0.2281,0.2367,0.2352,0.2304,0.2252,0.2223,0.2198,0.2095,0.1994,0.2271,0.2302,0.2303,0.2304,0.2304,0.2305,0,0.1651,0.1667,0.1687,0.17,0.1701,0.1735,0.1767,0.1758,0.1792,0.1905,0.1982,0.209,0.2138,0.2199,0.2223,0.2137,0.1997,0.207,0.1887,0.184,0.2115,0.2078,0.2041,0.2041,0.2041,0.2041,0.2042,0.2042,0.1624,0.1618,0.1631,0.1616,0.1627,0.1602,0.1601,0.1604,0.1661,0.1729,0.18,0.1889,0.2049,0.2115,0.2074,0.2015,0.1841,0.1748,0.1728,0.1936,0.1948,0.1958,0.1917,0.1848,0.1848,0.137,0.1367,0.1364]},{"header":{"parameterUnit":"m.s-1","parameterCategory":2,"la1":30.2991,"la2":30.254,"lo1":-89.0895,"lo2":-89.0444,"dy":0.0017,"dx":0.0017,"nx":28,"ny":28,"refTime":"2023-10-25T03:00:00:Z","depth":"0","parameterNumber":3,"parameterNumberName":"V-component_of_CURRENTS"},"data":[0,0,0,0,0,0,0,0,0,0,0,0,0,0,0,0,0,0,0,0,0,0,0,0,0,0,0,0,0,0,0,0,0,0,0,0,0,0,0,0,0,0,0,0,0,0,0,0,0,0,0,0,0,0,0,0,0,0,-0.0016,-0.0017,0,-0.0066,-0.0067,-0.0067,-0.0092,-0.0092,-0.0092,-0.0092,-0.0119,-0.0119,-0.012,0,0,0,0,0,0,0,0,0,0,0,0,0,0.0035,0.0035,-0.0016,-0.0017,-0.0017,-0.0066,-0.0067,-0.0068,-0.0092,-0.0092,-0.0092,-0.0092,-0.0118,-0.0119,-0.012,0,0,0,0,0,0,0,0,0,0,0,0,0,0.0001,0.0034,-0.0016,-0.0035,-0.0037,-0.0066,-0.0067,-0.0068,-0.0092,-0.0092,-0.0092,-0.0092,-0.0118,-0.0119,-0.012,-0.0129,0,0,-0.0124,-0.0124,0,0,0,0,0,0,0,0,0.0003,-0.0001,-0.0032,-0.0034,-0.0036,-0.0072,-0.0058,-0.0087,-0.0092,-0.0072,-0.0092,-0.0092,-0.0101,-0.0103,-0.0114,-0.013,-0.0131,-0.0124,-0.0125,-0.0125,-0.0125,0,0,0,0,0,0,0,0.0006,0.0001,-0.0037,-0.0032,-0.0035,-0.0049,-0.0053,-0.0064,-0.0086,-0.0074,-0.0076,-0.008,-0.0102,-0.0113,-0.0115,-0.0132,-0.0124,-0.0125,-0.0126,-0.0126,-0.0139,-0.0139,0,0,0,0,0,0,0.0014,0.0004,-0.0035,-0.0038,-0.0015,-0.005,-0.0055,-0.0061,-0.0087,-0.0091,-0.008,-0.0081,-0.0111,-0.0114,-0.0116,-0.0116,-0.0125,-0.0126,-0.0127,-0.014,-0.0139,-0.0139,0,0,0,0,0,0,0.0016,0.0011,-0.0033,-0.0018,-0.0024,-0.005,-0.0058,-0.0062,-0.0071,-0.0092,-0.0095,-0.0084,-0.0111,-0.0114,-0.012,-0.0117,-0.0127,-0.0128,-0.014,-0.014,-0.0139,-0.0123,0,0,0,0,0,0,0.0017,0.0012,0.001,-0.0017,-0.0025,-0.0045,-0.0058,-0.0063,-0.0074,-0.0076,-0.0096,-0.0099,-0.0111,-0.0118,-0.0121,-0.0119,-0.0129,-0.0141,-0.014,-0.0139,-0.0124,-0.0122,-0.0121,0,0,0,0,0,0.0019,0.0016,0.001,0.0006,-0.0026,-0.0045,-0.005,-0.0069,-0.0074,-0.0077,-0.0088,-0.0098,-0.0117,-0.0119,-0.0123,-0.0121,-0.0141,-0.014,-0.0139,-0.0125,-0.0123,-0.0121,0,0,0,0,0,0,0.0037,0.0013,0.0006,-0.0004,-0.002,-0.0049,-0.0054,-0.0066,-0.0079,-0.0078,-0.0096,-0.01,-0.0103,-0.0113,-0.0115,-0.0122,-0.0129,-0.0129,-0.0117,-0.0115,-0.0113,-0.0122,-0.013,0,0,0,0,0,0.0041,0.0033,0.001,0.0003,-0.0004,-0.0027,-0.0037,-0.0048,-0.0064,-0.007,-0.0084,-0.0095,-0.0104,-0.0109,-0.0118,-0.0124,-0.0139,-0.0123,-0.0121,-0.012,-0.0129,-0.0156,-0.0158,-0.0137,-0.0137,-0.0137,0,0,0.0047,0.0032,0.0028,0.0006,-0.0007,-0.0014,-0.0033,-0.0044,-0.0048,-0.007,-0.0077,-0.0089,-0.0103,-0.0109,-0.0111,-0.0116,-0.0128,-0.0119,-0.0118,-0.0128,-0.0156,-0.0158,-0.016,-0.0136,-0.0136,-0.0136,0,0,0.0055,0.0042,0.004,0.0029,0.0012,-0.0003,-0.0003,-0.0027,-0.0036,-0.0045,-0.006,-0.0074,-0.0085,-0.0101,-0.0108,-0.0102,-0.0117,-0.0097,-0.0099,-0.0125,-0.0127,-0.013,-0.0129,-0.0132,-0.0098,-0.0098,-0.0098,0,0.0064,0.0057,0.0037,0.0034,0.0028,0.0006,0.0006,-0.0007,-0.003,-0.0037,-0.0042,-0.0073,-0.0084,-0.0101,-0.0099,-0.01,-0.0108,-0.0106,-0.0124,-0.0127,-0.0129,-0.0129,-0.0132,-0.0097,-0.0097,-0.0097,-0.0097,0,0.0072,0.0068,0.0067,0.0056,0.0046,0.0044,0.0025,0.0017,0.0005,-0.0013,-0.0032,-0.0056,-0.0075,-0.0079,-0.0089,-0.0111,-0.0106,-0.0118,-0.0131,-0.0131,-0.0129,-0.0133,-0.0096,-0.0096,-0.0096,-0.0096,0,0,0.0092,0.0076,0.0077,0.0077,0.006,0.0054,0.0048,0.0033,0.0033,0.0001,-0.0008,-0.004,-0.006,-0.007,-0.0087,-0.0117,-0.0135,-0.0125,-0.0126,-0.0128,-0.0174,-0.0141,-0.0142,-0.0151,-0.0152,-0.0153,-0.0157,0,0.0107,0.0109,0.0095,0.01,0.0101,0.0081,0.0079,0.0062,0.0047,0.0035,-0.0007,-0.0018,-0.0052,-0.0056,-0.0094,-0.0119,-0.0147,-0.0132,-0.0172,-0.0173,-0.0148,-0.0146,-0.012,-0.012,-0.0161,-0.0162,-0.0162,0,0.0124,0.0123,0.013,0.0125,0.0124,0.0123,0.0117,0.0114,0.0089,0.0079,0.0044,0.0016,-0.0025,-0.0053,-0.0121,-0.0108,-0.0143,-0.0173,-0.0174,-0.0156,-0.0148,-0.0131,-0.0125,-0.021,-0.0168,-0.0167,-0.0167,0,0.0152,0.0149,0.0157,0.0155,0.0145,0.0145,0.0143,0.0125,0.0137,0.0109,0.012,0.0049,0.0046,-0.0036,-0.0091,-0.0107,-0.0158,-0.0185,-0.0193,-0.019,-0.0183,-0.0178,-0.0271,-0.0246,-0.0246,-0.0246,-0.0246,0,0.0175,0.0183,0.0172,0.0178,0.0193,0.0175,0.019,0.0182,0.0185,0.0216,0.0149,0.0171,0.0049,0.001,-0.0073,-0.0127,-0.0142,-0.0195,-0.0196,-0.0173,-0.0166,-0.0253,-0.0327,-0.0247,-0.0246,-0.0246,-0.0246,0,0.0206,0.0198,0.021,0.0205,0.0207,0.0219,0.0235,0.0253,0.0255,0.0298,0.0298,0.0269,0.0231,0.0117,0.0014,-0.0068,-0.0195,-0.0165,-0.0114,-0.0109,-0.0208,-0.0281,-0.0383,-0.0433,-0.0186,-0.0186,-0.0185,0,0.0222,0.0231,0.0236,0.025,0.025,0.0265,0.0285,0.0288,0.0323,0.0376,0.0412,0.0392,0.0409,0.0273,0.0114,-0.0023,-0.0143,-0.0101,-0.0144,-0.0211,-0.0294,-0.0342,-0.0381,-0.012,-0.0119,-0.0118,-0.0117,0,0.0255,0.0257,0.0265,0.0295,0.0315,0.0345,0.0379,0.0422,0.0456,0.0522,0.0621,0.0644,0.053,0.0419,0.0217,0.0103,-0.0169,-0.0086,-0.0184,-0.0276,-0.031,-0.0356,-0.0103,-0.011,-0.011,-0.0111,-0.0111,-0.0112,0.0284,0.0298,0.0313,0.0341,0.0371,0.0432,0.0478,0.0549,0.0646,0.0774,0.0793,0.0883,0.0683,0.0426,0.0248,-0.0056,-0.0098,-0.0156,-0.0243,-0.0287,-0.0335,-0.0046,-0.0038,-0.0038,-0.0039,-0.0039,-0.0039,0,0.0319,0.0333,0.0361,0.0399,0.0446,0.0456,0.0549,0.0623,0.0773,0.0912,0.1028,0.1027,0.077,0.0472,0.0059,-0.0168,-0.0279,-0.0306,-0.0392,-0.043,-0.0189,-0.0185,-0.0173,-0.0173,-0.0173,-0.0172,-0.0172,-0.0172,0.0339,0.0369,0.0379,0.0456,0.0493,0.0579,0.0645,0.078,0.0902,0.1108,0.1211,0.1267,0.1071,0.0294,-0.022,-0.0361,-0.0547,-0.0575,-0.0681,-0.0536,-0.0529,-0.0522,-0.0534,-0.0595,-0.0596,-0.0872,-0.0875,-0.0877]}],[{"header":{"parameterUnit":"m.s-1","parameterCategory":2,"la1":30.2991,"la2":30.254,"lo1":-89.0895,"lo2":-89.0444,"dy":0.0017,"dx":0.0017,"nx":28,"ny":28,"refTime":"2023-10-25T03:00:00:Z","depth":"2","parameterNumber":2,"parameterNumberName":"U-component_of_CURRENTS"},"data":[0,0,0,0,0,0,0,0,0,0,0,0,0,0,0,0,0,0,0,0,0,0,0,0,0,0,0,0,0,0,0,0,0,0,0,0,0,0,0,0,0,0,0,0,0,0,0,0,0,0,0,0,0,0,0,0,0,0,0.1919,0.192,0,0.194,0.194,0.194,0.1945,0.1946,0.1946,0.1946,0.1975,0.1976,0.1976,0,0,0,0,0,0,0,0,0,0,0,0,0,0.1868,0.1868,0.1919,0.192,0.1921,0.194,0.194,0.194,0.1945,0.1946,0.1946,0.1947,0.1975,0.1976,0.1976,0,0,0,0,0,0,0,0,0,0,0,0,0,0.1885,0.1868,0.1919,0.193,0.1931,0.194,0.194,0.194,0.1945,0.1946,0.1946,0.1947,0.1975,0.1976,0.1976,0.197,0,0,0.1978,0.1979,0,0,0,0,0,0,0,0,0.1884,0.1886,0.1927,0.1929,0.1931,0.1945,0.1933,0.1952,0.1945,0.1934,0.1946,0.1947,0.1969,0.197,0.1965,0.1971,0.1973,0.1978,0.1979,0.1979,0.1979,0,0,0,0,0,0,0,0.1882,0.1885,0.1922,0.1928,0.193,0.1928,0.1931,0.1936,0.1945,0.1935,0.1937,0.1947,0.1969,0.1965,0.1966,0.1973,0.1978,0.1979,0.1979,0.198,0.2018,0.2019,0,0,0,0,0,0,0.1891,0.1884,0.1922,0.1923,0.1914,0.1929,0.1932,0.1936,0.1944,0.1948,0.1947,0.1948,0.1963,0.1966,0.1967,0.2008,0.1979,0.198,0.198,0.2018,0.2018,0.2019,0,0,0,0,0,0,0.1889,0.1893,0.1921,0.1908,0.1913,0.193,0.1934,0.1936,0.1938,0.1954,0.1957,0.1949,0.1964,0.1967,0.1982,0.2007,0.198,0.1981,0.2017,0.2018,0.2019,0.2058,0,0,0,0,0,0,0.1887,0.1893,0.1898,0.1909,0.1914,0.1932,0.1934,0.1936,0.1946,0.1947,0.1957,0.1959,0.1964,0.1981,0.1983,0.2008,0.1981,0.2016,0.2017,0.2018,0.2056,0.206,0.2064,0,0,0,0,0,0.1885,0.1893,0.1898,0.1903,0.1921,0.1932,0.1934,0.1944,0.1946,0.1947,0.1957,0.1959,0.199,0.1982,0.1984,0.2009,0.2015,0.2017,0.2018,0.2054,0.2059,0.2063,0,0,0,0,0,0,0.1879,0.1895,0.1901,0.1915,0.1926,0.1935,0.1942,0.1946,0.1952,0.1959,0.1963,0.1967,0.1994,0.199,0.1981,0.2023,0.2005,0.2007,0.2031,0.2036,0.204,0.2037,0.1982,0,0,0,0,0,0.188,0.1885,0.1903,0.1914,0.192,0.1929,0.1936,0.1946,0.1956,0.1958,0.1972,0.1985,0.1999,0.2007,0.2021,0.2036,0.204,0.2054,0.2058,0.2062,0.206,0.2086,0.2092,0.2024,0.2024,0.2024,0,0,0.1883,0.1892,0.1897,0.1912,0.192,0.1936,0.1933,0.1949,0.197,0.1962,0.1994,0.2001,0.2007,0.2033,0.2045,0.2034,0.2085,0.2063,0.2066,0.2063,0.2088,0.2095,0.2101,0.2025,0.2024,0.2024,0,0,0.1887,0.1897,0.1901,0.1913,0.1933,0.1943,0.1949,0.1969,0.1985,0.201,0.2017,0.2035,0.2054,0.2068,0.2074,0.2103,0.2108,0.211,0.2127,0.2152,0.2158,0.2163,0.2187,0.2193,0.2109,0.2109,0.2109,0,0.1885,0.1899,0.1905,0.1916,0.1935,0.1948,0.1966,0.1983,0.201,0.2026,0.2029,0.2065,0.2073,0.2101,0.2113,0.2114,0.2126,0.211,0.2158,0.2163,0.2168,0.219,0.2197,0.2111,0.2111,0.2111,0.2111,0,0.1897,0.1909,0.1914,0.1933,0.1953,0.1971,0.2004,0.2027,0.2049,0.2066,0.2105,0.2116,0.2135,0.2144,0.2137,0.2175,0.2173,0.2164,0.2147,0.2178,0.2199,0.2206,0.2114,0.2114,0.2113,0.2113,0,0,0.1877,0.1913,0.1913,0.1931,0.1967,0.1985,0.2027,0.2063,0.209,0.212,0.2153,0.2179,0.2182,0.2188,0.219,0.2207,0.2254,0.2198,0.2199,0.2223,0.2313,0.2257,0.2259,0.2256,0.2257,0.2258,0.2318,0,0.1878,0.1905,0.1926,0.1961,0.1983,0.2016,0.2053,0.2093,0.2125,0.2161,0.2181,0.2209,0.2201,0.2211,0.2232,0.2251,0.2272,0.2238,0.2277,0.2279,0.2227,0.2265,0.2105,0.214,0.2324,0.2325,0.2326,0,0.1874,0.19,0.1936,0.1985,0.1996,0.2021,0.2083,0.2117,0.2167,0.2194,0.2224,0.2238,0.2275,0.2258,0.2314,0.2295,0.2305,0.2314,0.2317,0.2253,0.2235,0.2138,0.2145,0.2337,0.2337,0.2336,0.2335,0,0.1858,0.1899,0.1932,0.195,0.2011,0.2035,0.2066,0.2122,0.2153,0.2209,0.224,0.228,0.2317,0.2334,0.2366,0.2342,0.2425,0.2395,0.2355,0.2352,0.2215,0.2197,0.2428,0.2428,0.2427,0.2427,0.2427,0,0.1844,0.1866,0.1926,0.1944,0.1982,0.2031,0.2069,0.2107,0.2163,0.2199,0.2249,0.2295,0.2339,0.2391,0.2392,0.2408,0.2453,0.2365,0.2365,0.2224,0.2207,0.2372,0.2365,0.243,0.2429,0.2429,0.2428,0,0.181,0.1848,0.1888,0.1956,0.1971,0.1999,0.2053,0.2081,0.2147,0.2201,0.222,0.2322,0.2398,0.2439,0.249,0.2448,0.2459,0.2451,0.2284,0.2262,0.2357,0.2351,0.2395,0.2393,0.2392,0.2391,0.239,0,0.1789,0.1813,0.1882,0.1901,0.1925,0.1968,0.1992,0.2058,0.2095,0.2214,0.2242,0.2347,0.2397,0.2467,0.2443,0.244,0.2479,0.2259,0.2168,0.2358,0.2354,0.235,0.2346,0.2012,0.2008,0.2005,0.2002,0,0.1761,0.1791,0.1826,0.1866,0.1894,0.1922,0.1966,0.199,0.2079,0.2132,0.2216,0.2262,0.2356,0.229,0.2303,0.227,0.2239,0.2191,0.2451,0.204,0.2,0.1995,0.2003,0.1974,0.1977,0.1979,0.198,0.1981,0.1731,0.1749,0.1796,0.1824,0.1854,0.187,0.1868,0.1928,0.1968,0.2009,0.2102,0.2103,0.2132,0.2066,0.2012,0.1977,0.2115,0.199,0.1998,0.2011,0.195,0.191,0.1856,0.1858,0.186,0.1862,0.1863,0,0.1681,0.1714,0.1748,0.1777,0.1777,0.1811,0.1843,0.1819,0.1837,0.1879,0.1894,0.1727,0.1701,0.1751,0.166,0.1638,0.1608,0.1561,0.1512,0.1543,0.157,0.1485,0.1269,0.1266,0.1264,0.1262,0,0,0.1659,0.1668,0.1691,0.1687,0.1703,0.1675,0.1673,0.1648,0.1656,0.1583,0.155,0.1605,0.1698,0.1446,0.1425,0.1341,0.1423,0.1286,0.1774,0.175,0.1774,0.1841,0.1748,0,0,0,0,0]},{"header":{"parameterUnit":"m.s-1","parameterCategory":2,"la1":30.2991,"la2":30.254,"lo1":-89.0895,"lo2":-89.0444,"dy":0.0017,"dx":0.0017,"nx":28,"ny":28,"refTime":"2023-10-25T03:00:00:Z","depth":"2","parameterNumber":3,"parameterNumberName":"V-component_of_CURRENTS"},"data":[0,0,0,0,0,0,0,0,0,0,0,0,0,0,0,0,0,0,0,0,0,0,0,0,0,0,0,0,0,0,0,0,0,0,0,0,0,0,0,0,0,0,0,0,0,0,0,0,0,0,0,0,0,0,0,0,0,0,-0.0049,-0.005,0,-0.0097,-0.0098,-0.0099,-0.0129,-0.0129,-0.0129,-0.0129,-0.0171,-0.0172,-0.0173,0,0,0,0,0,0,0,0,0,0,0,0,0,-0.0005,-0.0006,-0.0049,-0.005,-0.005,-0.0097,-0.0098,-0.0099,-0.0129,-0.0129,-0.0129,-0.0129,-0.0171,-0.0172,-0.0174,0,0,0,0,0,0,0,0,0,0,0,0,0,-0.0036,-0.0006,-0.0049,-0.0071,-0.0073,-0.0097,-0.0098,-0.0099,-0.0129,-0.0129,-0.0129,-0.0129,-0.0171,-0.0172,-0.0174,-0.0179,0,0,-0.0178,-0.0179,0,0,0,0,0,0,0,0,-0.0034,-0.0038,-0.0067,-0.0069,-0.0072,-0.0107,-0.0098,-0.0125,-0.0129,-0.0108,-0.0129,-0.013,-0.0149,-0.0152,-0.0162,-0.0181,-0.0183,-0.0178,-0.0179,-0.018,-0.018,0,0,0,0,0,0,0,-0.0032,-0.0036,-0.0069,-0.0068,-0.0071,-0.0086,-0.009,-0.0103,-0.0127,-0.011,-0.0112,-0.0117,-0.015,-0.016,-0.0163,-0.0183,-0.0178,-0.018,-0.0181,-0.0181,-0.02,-0.0199,0,0,0,0,0,0,-0.0024,-0.0034,-0.0067,-0.007,-0.0053,-0.0086,-0.0091,-0.0096,-0.0127,-0.0132,-0.0117,-0.0118,-0.0157,-0.0161,-0.0164,-0.0169,-0.018,-0.0181,-0.0182,-0.02,-0.02,-0.0199,0,0,0,0,0,0,-0.0023,-0.0027,-0.0065,-0.0053,-0.0059,-0.0086,-0.0092,-0.0097,-0.0105,-0.0132,-0.0137,-0.012,-0.0158,-0.0162,-0.0173,-0.0171,-0.0182,-0.0183,-0.0201,-0.02,-0.02,-0.0181,0,0,0,0,0,0,-0.0022,-0.0026,-0.0027,-0.0052,-0.0059,-0.0075,-0.0092,-0.0098,-0.0108,-0.011,-0.0136,-0.0141,-0.0158,-0.017,-0.0174,-0.0173,-0.0184,-0.0201,-0.02,-0.02,-0.0182,-0.018,-0.0178,0,0,0,0,0,-0.002,-0.002,-0.0027,-0.0031,-0.006,-0.0075,-0.008,-0.0101,-0.0108,-0.011,-0.0126,-0.014,-0.0168,-0.0171,-0.0176,-0.0176,-0.0202,-0.0201,-0.02,-0.0183,-0.018,-0.0178,0,0,0,0,0,0,-0.0004,-0.0024,-0.0032,-0.0039,-0.0053,-0.008,-0.0084,-0.0097,-0.0112,-0.0114,-0.0137,-0.0143,-0.0151,-0.0162,-0.0165,-0.0177,-0.0186,-0.0186,-0.0172,-0.0169,-0.0167,-0.0174,-0.0186,0,0,0,0,0,0.0001,-0.0004,-0.0025,-0.003,-0.0035,-0.0058,-0.0067,-0.008,-0.0097,-0.0104,-0.0124,-0.014,-0.0151,-0.0159,-0.0172,-0.018,-0.0194,-0.0181,-0.0179,-0.0177,-0.0184,-0.0209,-0.021,-0.0196,-0.0196,-0.0196,0,0,0.0005,-0.0006,-0.001,-0.0027,-0.004,-0.0045,-0.0064,-0.0074,-0.0081,-0.0106,-0.0119,-0.0133,-0.015,-0.016,-0.0164,-0.017,-0.0183,-0.0176,-0.0174,-0.0183,-0.0208,-0.021,-0.0211,-0.0196,-0.0196,-0.0196,0,0,0.0014,0.0003,0.0003,-0.0005,-0.002,-0.0034,-0.0034,-0.0058,-0.007,-0.0082,-0.01,-0.0116,-0.0133,-0.0151,-0.0159,-0.0153,-0.017,-0.015,-0.0149,-0.0172,-0.0174,-0.0176,-0.0175,-0.0177,-0.0151,-0.0151,-0.0151,0,0.0021,0.0018,0.0001,0.0001,-0.0005,-0.0025,-0.0025,-0.0039,-0.0065,-0.0074,-0.0082,-0.0116,-0.0132,-0.0148,-0.0147,-0.015,-0.0157,-0.0158,-0.0171,-0.0173,-0.0175,-0.0174,-0.0177,-0.015,-0.015,-0.015,-0.015,0,0.003,0.0029,0.003,0.0023,0.0014,0.0013,-0.0007,-0.0017,-0.0032,-0.005,-0.0071,-0.0099,-0.0119,-0.0125,-0.0137,-0.0156,-0.0152,-0.0164,-0.018,-0.0176,-0.0174,-0.0177,-0.0148,-0.0149,-0.0149,-0.0149,0,0,0.0047,0.0038,0.004,0.0042,0.0027,0.0022,0.0014,-0.0001,-0.0001,-0.0036,-0.0044,-0.008,-0.0099,-0.011,-0.0128,-0.0156,-0.0172,-0.0167,-0.0168,-0.0169,-0.0206,-0.0176,-0.0176,-0.0188,-0.0189,-0.019,-0.0192,0,0.0062,0.0068,0.0056,0.0063,0.0066,0.0047,0.0045,0.0027,0.0011,0.0,-0.0042,-0.0053,-0.009,-0.0094,-0.013,-0.0156,-0.0182,-0.0169,-0.0207,-0.0208,-0.0185,-0.018,-0.0171,-0.017,-0.0195,-0.0196,-0.0196,0,0.0077,0.008,0.0089,0.0088,0.0087,0.0087,0.0082,0.0078,0.0056,0.0046,0.0014,-0.0014,-0.0054,-0.0084,-0.015,-0.0138,-0.0174,-0.0203,-0.0204,-0.0189,-0.0184,-0.0182,-0.0175,-0.0201,-0.0201,-0.02,-0.02,0,0.0101,0.0104,0.0112,0.0112,0.0107,0.0107,0.0105,0.0091,0.0103,0.0078,0.009,0.0023,0.0019,-0.006,-0.0117,-0.0135,-0.018,-0.021,-0.0219,-0.0216,-0.0224,-0.022,-0.0267,-0.0267,-0.0267,-0.0267,-0.0267,0,0.0122,0.0132,0.0126,0.0133,0.0149,0.0134,0.0152,0.0146,0.0153,0.0187,0.012,0.0144,0.0024,-0.0013,-0.0096,-0.015,-0.0163,-0.0218,-0.022,-0.0213,-0.0208,-0.0253,-0.0252,-0.0267,-0.0267,-0.0267,-0.0267,0,0.0148,0.0144,0.0158,0.0159,0.0162,0.0175,0.0196,0.0217,0.0222,0.0269,0.0269,0.0242,0.0203,0.0092,-0.0009,-0.0089,-0.0166,-0.0184,-0.0152,-0.0151,-0.0195,-0.0192,-0.0208,-0.0207,-0.0207,-0.0206,-0.0205,0,0.0161,0.0171,0.0183,0.0199,0.0201,0.0219,0.0242,0.0251,0.0289,0.0346,0.0383,0.0363,0.0375,0.0243,0.008,-0.0058,-0.0099,-0.0139,-0.0186,-0.0191,-0.0192,-0.019,-0.0189,-0.0182,-0.0181,-0.018,-0.018,0,0.019,0.0194,0.0207,0.0241,0.0264,0.0298,0.0336,0.0381,0.0421,0.0486,0.0582,0.06,0.048,0.0349,0.0151,0.0048,-0.0124,-0.013,-0.015,-0.0191,-0.0165,-0.0165,-0.0165,-0.0175,-0.0175,-0.0176,-0.0176,-0.0176,0.0215,0.0232,0.0253,0.0285,0.032,0.0382,0.043,0.0502,0.06,0.0703,0.0717,0.0753,0.058,0.034,0.016,-0.0049,-0.0049,-0.0141,-0.0144,-0.0147,-0.0137,-0.0111,-0.0107,-0.0107,-0.0107,-0.0107,-0.0107,0,0.0245,0.0266,0.0298,0.0342,0.0392,0.0405,0.05,0.0565,0.0709,0.0789,0.087,0.073,0.0592,0.039,0.0091,-0.0079,-0.0121,-0.0138,-0.0164,-0.0166,-0.017,-0.0163,-0.0139,-0.0139,-0.014,-0.014,0,0,0.0262,0.0295,0.0311,0.0393,0.0436,0.0521,0.0588,0.0698,0.0777,0.0868,0.089,0.0881,0.0657,0.0434,0.0196,0.0027,-0.0034,-0.0008,0.0036,0.003,0.0029,-0.015,-0.0139,0,0,0,0,0]}],[{"header":{"parameterUnit":"m.s-1","parameterCategory":2,"la1":30.2991,"la2":30.254,"lo1":-89.0895,"lo2":-89.0444,"dy":0.0017,"dx":0.0017,"nx":28,"ny":28,"refTime":"2023-10-25T03:00:00:Z","depth":"4","parameterNumber":2,"parameterNumberName":"U-component_of_CURRENTS"},"data":[0,0,0,0,0,0,0,0,0,0,0,0,0,0,0,0,0,0,0,0,0,0,0,0,0,0,0,0,0,0,0,0,0,0,0,0,0,0,0,0,0,0,0,0,0,0,0,0,0,0,0,0,0,0,0,0,0,0,0.1003,0.1003,0,0.103,0.103,0.1031,0.107,0.1071,0.1072,0.1072,0.1138,0.1139,0.114,0,0,0,0,0,0,0,0,0,0,0,0,0,0.1003,0.1003,0.1003,0.1003,0.1004,0.103,0.103,0.1031,0.107,0.1071,0.1072,0.1073,0.1138,0.1139,0.1141,0,0,0,0,0,0,0,0,0,0,0,0,0,0.1014,0.1003,0.1003,0.1026,0.1028,0.103,0.103,0.1031,0.107,0.1071,0.1072,0.1073,0.1137,0.1139,0.1141,0.1133,0,0,0.1146,0.1147,0,0,0,0,0,0,0,0,0.1014,0.1014,0.1022,0.1024,0.1027,0.1047,0.1054,0.1067,0.107,0.1055,0.1072,0.1073,0.111,0.1114,0.1118,0.1136,0.1138,0.1146,0.1147,0.1148,0.1148,0,0,0,0,0,0,0,0.1013,0.1014,0.1014,0.1022,0.1025,0.1041,0.1043,0.1057,0.1078,0.1056,0.1059,0.1061,0.1112,0.1116,0.112,0.1139,0.1146,0.1148,0.1149,0.1149,0.1245,0.1247,0,0,0,0,0,0,0.1006,0.1013,0.1014,0.1015,0.1022,0.104,0.1043,0.104,0.1077,0.1083,0.106,0.1062,0.1112,0.1117,0.1122,0.118,0.1148,0.115,0.1151,0.1244,0.1246,0.1247,0,0,0,0,0,0,0.1006,0.1006,0.1012,0.1014,0.1016,0.1039,0.1036,0.104,0.1072,0.1079,0.1087,0.109,0.1113,0.112,0.1156,0.118,0.115,0.1152,0.1242,0.1244,0.1246,0.1254,0,0,0,0,0,0,0.1006,0.1005,0.1016,0.1014,0.1016,0.1026,0.1035,0.104,0.1069,0.1074,0.1107,0.1112,0.1114,0.1153,0.1158,0.1182,0.1153,0.124,0.1243,0.1246,0.1251,0.1256,0.126,0,0,0,0,0,0.1005,0.1008,0.1016,0.1018,0.1025,0.1026,0.103,0.1049,0.107,0.1082,0.1109,0.1113,0.1175,0.1155,0.116,0.1186,0.1239,0.1242,0.1245,0.125,0.1255,0.1259,0,0,0,0,0,0,0.1018,0.1013,0.1021,0.1025,0.1033,0.1033,0.105,0.1064,0.1094,0.1109,0.1123,0.113,0.1172,0.1182,0.116,0.1225,0.1211,0.1215,0.1213,0.1218,0.1222,0.1217,0.1155,0,0,0,0,0,0.1024,0.1025,0.1024,0.1031,0.1037,0.1051,0.1061,0.1072,0.1089,0.1105,0.1126,0.1157,0.1184,0.1204,0.1223,0.1254,0.1264,0.1279,0.1283,0.1286,0.1288,0.1327,0.1334,0.1258,0.1258,0.1258,0,0,0.1031,0.1029,0.1031,0.1035,0.1045,0.1051,0.106,0.1078,0.1091,0.1107,0.1144,0.1169,0.1196,0.123,0.1251,0.1244,0.1312,0.129,0.1293,0.1293,0.1331,0.1339,0.1345,0.126,0.126,0.126,0,0,0.1033,0.1045,0.1045,0.1051,0.1065,0.107,0.1081,0.1094,0.1114,0.1145,0.1164,0.1204,0.1244,0.1263,0.128,0.1321,0.133,0.134,0.1357,0.1395,0.1401,0.1407,0.1419,0.1426,0.1344,0.1344,0.1344,0,0.1046,0.1043,0.1049,0.1051,0.106,0.1081,0.1088,0.1105,0.113,0.1149,0.1163,0.1237,0.1258,0.1301,0.1319,0.1328,0.1347,0.1331,0.1398,0.1404,0.141,0.1421,0.1429,0.1345,0.1345,0.1345,0.1344,0,0.1042,0.105,0.1053,0.1061,0.1072,0.1082,0.1098,0.1119,0.1152,0.1172,0.1229,0.1261,0.1307,0.1325,0.1337,0.1392,0.139,0.1394,0.1379,0.1417,0.1428,0.1435,0.1346,0.1346,0.1345,0.1345,0,0,0.1041,0.1048,0.1053,0.1054,0.1079,0.1079,0.1108,0.1133,0.1161,0.1203,0.1249,0.13,0.1331,0.1354,0.1378,0.1415,0.1466,0.1427,0.1429,0.1428,0.1541,0.1458,0.1458,0.1488,0.149,0.1491,0.1529,0,0.1041,0.1039,0.1049,0.1058,0.1056,0.1083,0.1109,0.1138,0.1177,0.1226,0.1277,0.1338,0.1339,0.1382,0.1413,0.1457,0.1488,0.1454,0.1516,0.1517,0.1429,0.1465,0.1496,0.1534,0.1536,0.1537,0.1538,0,0.103,0.1029,0.1037,0.1046,0.1053,0.1072,0.1112,0.1139,0.1208,0.1245,0.1305,0.1357,0.1422,0.143,0.15,0.1483,0.1515,0.1542,0.1544,0.1469,0.1447,0.1493,0.1551,0.155,0.1549,0.1548,0.1547,0,0.1004,0.1016,0.1023,0.1028,0.1051,0.1071,0.1098,0.1155,0.119,0.1278,0.1329,0.1393,0.1455,0.1499,0.1553,0.1542,0.163,0.1617,0.1565,0.1559,0.1617,0.1611,0.1674,0.1674,0.1674,0.1674,0.1674,0,0.0981,0.0986,0.1017,0.1014,0.1028,0.1066,0.1104,0.1134,0.1221,0.1263,0.1352,0.1394,0.1485,0.1545,0.1571,0.1582,0.1641,0.157,0.1568,0.1618,0.1612,0.1621,0.1615,0.1675,0.1675,0.1675,0.1674,0,0.0947,0.097,0.0966,0.0997,0.1011,0.1026,0.1095,0.1114,0.122,0.1282,0.1327,0.1425,0.1489,0.1562,0.1638,0.1601,0.1628,0.1624,0.1668,0.1668,0.1522,0.1516,0.155,0.1548,0.1546,0.1544,0.1543,0,0.0926,0.0926,0.0942,0.094,0.0959,0.0996,0.1007,0.1095,0.1124,0.1273,0.1288,0.1413,0.1462,0.1494,0.1566,0.161,0.1607,0.1601,0.1559,0.1517,0.1513,0.151,0.1506,0.1539,0.1539,0.1538,0.1537,0,0.0884,0.0904,0.0899,0.0891,0.0895,0.0894,0.0934,0.0947,0.1052,0.117,0.1237,0.1306,0.1376,0.1428,0.1492,0.1515,0.1587,0.1578,0.1582,0.1543,0.1504,0.1501,0.15,0.153,0.1531,0.1532,0.1532,0,0.0859,0.0841,0.0843,0.0825,0.0825,0.0788,0.0811,0.0851,0.0904,0.1081,0.1087,0.1226,0.1338,0.1379,0.1423,0.1456,0.1436,0.139,0.1403,0.1412,0.1354,0.1285,0.1244,0,0,0,0,0,0.083,0.0794,0.0771,0.0728,0.0727,0.0732,0.0755,0.0791,0.0894,0.091,0.1014,0.1081,0.1178,0.1242,0.1253,0.1352,0.1427,0.1357,0.1374,0.1489,0.1498,0.1445,0,0,0,0,0,0,0.08,0.0786,0.0746,0.0665,0.0632,0.0613,0.062,0.068,0.0707,0.0839,0.0894,0.103,0.1131,0.118,0.1242,0.1265,0.1255,0.1457,0.1454,0.1484,0.1492,0.1499,0.1448,0,0,0,0,0]},{"header":{"parameterUnit":"m.s-1","parameterCategory":2,"la1":30.2991,"la2":30.254,"lo1":-89.0895,"lo2":-89.0444,"dy":0.0017,"dx":0.0017,"nx":28,"ny":28,"refTime":"2023-10-25T03:00:00:Z","depth":"4","parameterNumber":3,"parameterNumberName":"V-component_of_CURRENTS"},"data":[0,0,0,0,0,0,0,0,0,0,0,0,0,0,0,0,0,0,0,0,0,0,0,0,0,0,0,0,0,0,0,0,0,0,0,0,0,0,0,0,0,0,0,0,0,0,0,0,0,0,0,0,0,0,0,0,0,0,0.0062,0.0062,0,0.004,0.0039,0.0039,0.0013,0.0013,0.0013,0.0012,-0.0032,-0.0033,-0.0034,0,0,0,0,0,0,0,0,0,0,0,0,0,0.0068,0.0068,0.0062,0.0062,0.0062,0.004,0.0039,0.0039,0.0013,0.0013,0.0013,0.0012,-0.0032,-0.0033,-0.0034,0,0,0,0,0,0,0,0,0,0,0,0,0,0.0057,0.0068,0.0062,0.0047,0.0046,0.004,0.0039,0.0039,0.0013,0.0013,0.0012,0.0012,-0.0031,-0.0033,-0.0034,-0.0034,0,0,-0.0038,-0.0039,0,0,0,0,0,0,0,0,0.0057,0.0056,0.0049,0.0048,0.0046,0.003,0.0025,0.0014,0.0013,0.0024,0.0012,0.0012,-0.0012,-0.0015,-0.002,-0.0036,-0.0038,-0.0038,-0.0039,-0.004,-0.004,0,0,0,0,0,0,0,0.0058,0.0057,0.0052,0.0049,0.0047,0.0036,0.0034,0.0023,0.0008,0.0023,0.0022,0.0021,-0.0014,-0.0018,-0.0021,-0.0038,-0.0038,-0.004,-0.004,-0.0041,-0.0057,-0.0057,0,0,0,0,0,0,0.0064,0.0058,0.0053,0.0052,0.0052,0.0037,0.0034,0.0035,0.0008,0.0004,0.0021,0.002,-0.0016,-0.0019,-0.0023,-0.0011,-0.004,-0.0041,-0.0042,-0.0058,-0.0057,-0.0057,0,0,0,0,0,0,0.0065,0.0064,0.0054,0.0055,0.0053,0.0037,0.0038,0.0034,0.0028,0.0007,0.0002,0.0018,-0.0016,-0.0021,-0.0031,-0.0014,-0.0042,-0.0043,-0.0058,-0.0057,-0.0057,0.0004,0,0,0,0,0,0,0.0065,0.0064,0.0067,0.0056,0.0053,0.0054,0.0038,0.0034,0.0029,0.0026,0.0003,-0.0002,-0.0017,-0.0029,-0.0032,-0.0016,-0.0044,-0.0059,-0.0058,-0.0057,0.0001,0.0006,0.001,0,0,0,0,0,0.0065,0.007,0.0067,0.0067,0.0057,0.0054,0.0052,0.0039,0.0029,0.003,0.0014,-0.0001,-0.0027,-0.0029,-0.0034,-0.0018,-0.0059,-0.0058,-0.0057,-0.0001,0.0005,0.001,0,0,0,0,0,0,0.0072,0.0068,0.0064,0.0067,0.0063,0.005,0.005,0.0041,0.0029,0.0026,0.0003,-0.0002,-0.0006,-0.0022,-0.0025,-0.0021,-0.0045,-0.0045,-0.0001,0.0005,0.0009,0.0036,-0.0045,0,0,0,0,0,0.0076,0.008,0.0073,0.0076,0.0076,0.0064,0.006,0.0053,0.0041,0.0035,0.0019,0.0003,-0.0005,-0.0009,-0.0024,-0.002,-0.0032,-0.0013,-0.0008,-0.0004,0.0014,0.0013,0.002,-0.0054,-0.0054,-0.0054,0,0,0.008,0.0078,0.008,0.0078,0.0074,0.0081,0.006,0.0059,0.007,0.0033,0.0037,0.0016,-0.0003,0.0001,-0.0002,-0.001,0.0006,-0.0003,0.0001,0.0017,0.0015,0.0022,0.0029,-0.0053,-0.0053,-0.0054,0,0,0.0089,0.0088,0.0094,0.0096,0.0094,0.0092,0.0093,0.0083,0.0083,0.0085,0.0062,0.0057,0.0037,0.0037,0.0032,0.0054,0.0027,0.0041,0.0094,0.0093,0.0099,0.0105,0.0084,0.0087,0.0049,0.005,0.005,0,0.0093,0.0102,0.0096,0.0104,0.0113,0.0099,0.0113,0.0115,0.0104,0.0115,0.0093,0.0085,0.0062,0.0085,0.0089,0.0068,0.0053,0.0076,0.0101,0.0106,0.0111,0.0088,0.0091,0.0053,0.0052,0.0052,0.0052,0,0.0108,0.0118,0.0123,0.0135,0.0143,0.0152,0.0158,0.017,0.0167,0.0167,0.0183,0.0157,0.0157,0.0145,0.0123,0.015,0.0121,0.0103,0.0091,0.0122,0.0095,0.0097,0.0057,0.0056,0.0055,0.0054,0,0,0.0112,0.0131,0.0133,0.0152,0.0162,0.0175,0.0204,0.023,0.026,0.0249,0.0283,0.0269,0.0254,0.0248,0.0222,0.0223,0.0229,0.0181,0.018,0.0169,0.0211,0.0157,0.0153,0.0214,0.0215,0.0216,0.0174,0,0.0127,0.0153,0.0161,0.0198,0.0216,0.0231,0.0264,0.0289,0.0301,0.0328,0.0323,0.0331,0.0294,0.0291,0.0291,0.0239,0.024,0.0241,0.0176,0.0174,0.0129,0.0156,0.0219,0.0175,0.0176,0.0176,0.0176,0,0.0141,0.0161,0.0194,0.0246,0.0257,0.0282,0.0345,0.0371,0.0409,0.0419,0.0436,0.0416,0.0418,0.0378,0.0338,0.0338,0.0287,0.0249,0.0246,0.0181,0.0124,0.0139,0.0179,0.0179,0.0179,0.0179,0.0178,0,0.015,0.019,0.0222,0.0235,0.0284,0.0319,0.0352,0.0399,0.0437,0.0473,0.0491,0.0492,0.0479,0.0439,0.0346,0.0344,0.0289,0.0273,0.0184,0.0178,0.0213,0.0208,0.0261,0.0261,0.0261,0.0261,0.0262,0,0.0164,0.0194,0.0232,0.025,0.0312,0.034,0.0413,0.0446,0.0497,0.054,0.0533,0.055,0.0492,0.0445,0.0373,0.0275,0.0307,0.0204,0.0173,0.0235,0.0233,0.0213,0.0208,0.026,0.026,0.0261,0.0261,0,0.0166,0.0186,0.0229,0.0287,0.0314,0.0358,0.0447,0.0502,0.0537,0.0589,0.0598,0.0589,0.0521,0.0447,0.036,0.0295,0.0214,0.017,0.0231,0.0202,0.01,0.0099,0.0088,0.0085,0.0084,0.0082,0.0081,0,0.0168,0.0187,0.0251,0.0285,0.0314,0.0388,0.0451,0.0517,0.0568,0.0605,0.0626,0.0579,0.0553,0.0399,0.0315,0.0182,0.0157,0.0115,0.0131,0.0116,0.0087,0.0088,0.0089,0.0078,0.0078,0.0077,0.0077,0,0.0174,0.0191,0.0225,0.0291,0.0356,0.0441,0.0521,0.0556,0.0623,0.0654,0.0641,0.057,0.0488,0.038,0.0264,0.0173,0.0148,0.0097,0.01,0.0115,0.0104,0.0077,0.008,0.0071,0.0072,0.0072,0.0073,0,0.0177,0.0196,0.0235,0.0298,0.0377,0.0457,0.0511,0.0569,0.0619,0.065,0.0637,0.0562,0.0526,0.0373,0.0271,0.0168,0.015,0.0123,0.0125,0.0131,0.0149,0.0142,0.0106,0,0,0,0,0,0.0179,0.0197,0.0247,0.0316,0.0393,0.044,0.0544,0.0594,0.0647,0.0637,0.0638,0.056,0.0411,0.0359,0.0245,0.0233,0.0126,0.0096,0.0095,0.0037,0.0044,0.0053,0,0,0,0,0,0,0.0179,0.0213,0.0235,0.0315,0.036,0.0459,0.052,0.0565,0.0565,0.0592,0.052,0.0507,0.0368,0.0458,0.0229,0.0202,0.0182,0.0039,0.0036,0.0033,0.0039,0.0045,0.0057,0,0,0,0,0]}]]